EW3302 Borlange SE current weather conditions

sailwx.info

Wind from 241 at 10 knots gusting 20

Air temperature 5.6° C
Dewpoint 3.1° C

Last reported at 2019-Dec-05 22:00 UTC.
Time now 2019-Dec-05 23:01 UTC

Location: N 60°30' E 015°26'.
View on Google Maps.

See reports from other nearby stations

  
Tides and Currents Weather Stations Pressure Air Temp Water Temp Dewpoint Dewpoint Depression Visibility Wind Speed Wind Dir Waves Ship Positions
date/time (UTC)wind fromknots sea level pressurealtimeterstation pressurevisibilityair tempwater tempwave heightnotes
2019-Dec-05 22:00 241 10 gusting 20 5.6
2019-Dec-05 21:50 237 10 gusting 17 5.6
2019-Dec-05 21:40 231 10 gusting 19 5.6
2019-Dec-05 21:30 232 11 gusting 19 5.6
2019-Dec-05 21:20 236 10 gusting 19 5.6
2019-Dec-05 21:10 233 10 gusting 19 5.6
2019-Dec-05 21:00 232 10 gusting 17 5.6
2019-Dec-05 20:50 240 11 gusting 20 5.6
2019-Dec-05 20:40 228 8 gusting 16 5.6
2019-Dec-05 20:30 227 6 gusting 15 5.6
2019-Dec-05 20:20 231 5 gusting 13 5.6
2019-Dec-05 20:10 236 6 gusting 13 5.6
2019-Dec-05 20:00 229 7 gusting 13 5.6
2019-Dec-05 19:50 243 8 gusting 14 5.6
2019-Dec-05 19:40 238 6 gusting 13 5.6
2019-Dec-05 19:30 243 6 gusting 17 5.6
2019-Dec-05 19:20 248 6 gusting 13 5.0
2019-Dec-05 19:10 238 7 gusting 13 5.6
2019-Dec-05 19:00 240 8 gusting 23 5.6
2019-Dec-05 18:50 231 6 gusting 13 5.0
2019-Dec-05 18:40 240 6 gusting 13 5.0
2019-Dec-05 18:30 225 6 gusting 11 5.0
2019-Dec-05 18:20 215 5 gusting 10 5.0
2019-Dec-05 18:10 210 5 gusting 13 5.0
2019-Dec-05 18:00 199 4 gusting 10 5.0
2019-Dec-05 17:50 213 6 gusting 11 5.0
2019-Dec-05 17:40 233 6 gusting 22 5.0
2019-Dec-05 17:30 230 6 gusting 13 5.0
2019-Dec-05 17:20 224 7 gusting 18 5.0
2019-Dec-05 17:10 227 6 gusting 16 5.0
2019-Dec-05 17:00 236 8 gusting 17 5.0
2019-Dec-05 16:50 225 11 gusting 20 5.0
2019-Dec-05 16:40 223 8 gusting 22 5.0
2019-Dec-05 16:30 226 10 gusting 22 5.0
2019-Dec-05 16:20 222 9 gusting 26 5.0
2019-Dec-05 16:10 229 11 gusting 20 5.0
2019-Dec-05 16:00 218 10 gusting 24 5.0
2019-Dec-05 15:50 236 12 gusting 23 5.0
2019-Dec-05 15:40 233 10 gusting 21 5.0
2019-Dec-05 15:30 227 10 gusting 24 5.0
2019-Dec-05 15:20 231 13 gusting 26 5.0
2019-Dec-05 15:10 220 15 gusting 26 5.0
2019-Dec-05 15:00 224 11 gusting 23 5.0
2019-Dec-05 14:50 222 10 gusting 19 5.0
2019-Dec-05 14:40 222 9 gusting 19 4.4
2019-Dec-05 14:30 216 10 gusting 19 4.4
2019-Dec-05 14:20 225 8 gusting 19 4.4
2019-Dec-05 14:10 227 6 gusting 15 4.4
2019-Dec-05 14:00 228 6 gusting 17 4.4
2019-Dec-05 13:50 228 5 gusting 17 4.4
2019-Dec-05 13:40 219 6 gusting 19 4.4
2019-Dec-05 13:30 213 6 gusting 16 4.4
2019-Dec-05 13:20 219 8 gusting 15 4.4
2019-Dec-05 13:10 218 7 gusting 18 4.4
2019-Dec-05 13:00 225 6 gusting 15 5.0
2019-Dec-05 12:50 230 6 gusting 16 4.4
2019-Dec-05 12:40 224 6 gusting 16 5.0
2019-Dec-05 12:30 226 9 gusting 19 5.0
2019-Dec-05 12:20 223 8 gusting 17 5.0
2019-Dec-05 12:10 227 7 gusting 19 5.0
2019-Dec-05 12:00 222 7 gusting 16 5.0
2019-Dec-05 11:50 233 6 gusting 18 5.0
2019-Dec-05 11:40 220 6 gusting 15 5.0
2019-Dec-05 11:30 224 7 gusting 19 5.0
2019-Dec-05 11:20 228 9 gusting 18 5.0
2019-Dec-05 11:10 221 6 gusting 17 5.0
2019-Dec-05 11:00 230 6 gusting 19 5.0
2019-Dec-05 10:50 230 9 gusting 21 5.0
2019-Dec-05 10:40 230 8 gusting 26 5.0
2019-Dec-05 10:30 233 7 gusting 19 5.0
2019-Dec-05 10:20 233 6 gusting 14 5.0
2019-Dec-05 10:10 229 9 gusting 18 5.0
2019-Dec-05 10:00 223 6 gusting 17 5.0
2019-Dec-05 09:50 216 8 gusting 19 4.4
2019-Dec-05 09:40 229 5 gusting 18 5.0
2019-Dec-05 09:30 224 7 gusting 19 5.0
2019-Dec-05 09:20 217 6 gusting 16 4.4
2019-Dec-05 09:10 218 10 gusting 22 4.4
2019-Dec-05 09:00 219 6 gusting 14 4.4
2019-Dec-05 08:50 226 6 gusting 14 4.4
2019-Dec-05 08:40 235 2 gusting 13 4.4
2019-Dec-05 08:30 223 1 gusting 11 4.4
2019-Dec-05 08:20 224 5 gusting 15 5.0
2019-Dec-05 08:10 220 6 gusting 14 5.0
2019-Dec-05 08:00 236 0 gusting 8 5.0
2019-Dec-05 07:50 220 2 gusting 7 5.0
2019-Dec-05 07:40 234 2 gusting 6 5.0
2019-Dec-05 07:30 234 1 gusting 8 5.0
2019-Dec-05 07:20 214 3 gusting 9 4.4
2019-Dec-05 07:10 167 4.4
2019-Dec-05 07:00 4.4
2019-Dec-05 06:50 204 4.4
2019-Dec-05 06:40 210 4.4
2019-Dec-05 06:30 199 4.4
2019-Dec-05 06:20 216 4.4
2019-Dec-05 06:10 204 4.4
2019-Dec-05 06:00 194 0 gusting 5 3.9
2019-Dec-05 05:50 158 3.9
2019-Dec-05 05:40 195 0 gusting 5 3.9
2019-Dec-05 05:30 213 3.9
2019-Dec-05 05:20 200 0 gusting 6 3.9
2019-Dec-05 05:10 186 1 gusting 4 3.9
2019-Dec-05 05:00 205 4.4
2019-Dec-05 04:50 234 0 gusting 5 4.4
2019-Dec-05 04:40 209 1 gusting 6 4.4
2019-Dec-05 04:30 218 4.4
2019-Dec-05 04:20 211 5.0
2019-Dec-05 04:10 4.4
2019-Dec-05 04:00 211 4.4
2019-Dec-05 03:50 238 0 gusting 9 4.4
2019-Dec-05 03:40 227 3 gusting 8 4.4
2019-Dec-05 03:30 253 1 gusting 8 4.4
2019-Dec-05 03:20 241 4 gusting 10 4.4
2019-Dec-05 03:10 249 0 gusting 11 4.4
2019-Dec-05 03:00 210 2 gusting 11 4.4
2019-Dec-05 02:50 219 3 gusting 14 4.4
2019-Dec-05 02:40 235 1 gusting 6 4.4
2019-Dec-05 02:30 231 1 gusting 11 4.4
2019-Dec-05 02:20 231 3 gusting 12 4.4
2019-Dec-05 02:10 233 2 gusting 10 4.4
2019-Dec-05 02:00 211 0 gusting 6 3.9
2019-Dec-05 01:50 219 1 gusting 6 3.9
2019-Dec-05 01:40 227 0 gusting 6 3.9
2019-Dec-05 01:30 224 0 gusting 4 3.9
2019-Dec-05 01:20 242 3.9
2019-Dec-05 01:10 231 0 gusting 5 3.9
2019-Dec-05 01:00 230 3.9
2019-Dec-05 00:50 212 1 gusting 4 3.9
2019-Dec-05 00:40 262 3.9
2019-Dec-05 00:30 234 3.9
2019-Dec-05 00:20 197 3.9
2019-Dec-05 00:10 249 0 gusting 5 3.9
2019-Dec-05 00:00 243 2 gusting 9 3.9
2019-Dec-04 23:50 227 0 gusting 7 3.9
2019-Dec-04 23:40 254 2 gusting 7 3.9
2019-Dec-04 23:30 240 4 gusting 14 3.3
2019-Dec-04 23:20 226 0 gusting 7 3.3
2019-Dec-04 23:10 236 3 gusting 12 3.9
2019-Dec-04 23:00 233 6 gusting 14 3.9
2019-Dec-04 22:50 239 2 gusting 9 3.3
2019-Dec-04 22:40 237 1 gusting 10 3.3
2019-Dec-04 22:30 257 0 gusting 9 3.3
2019-Dec-04 22:20 247 1 gusting 10 3.3
2019-Dec-04 22:10 241 0 gusting 9 3.3
2019-Dec-04 22:00 249 3.3
2019-Dec-04 21:50 245 0 gusting 6 2.8
2019-Dec-04 21:40 219 2 gusting 8 2.8
2019-Dec-04 21:30 214 2 gusting 10 2.8
2019-Dec-04 21:20 213 2 gusting 8 2.8
2019-Dec-04 21:10 216 2 gusting 9 2.8
2019-Dec-04 21:00 215 5 gusting 9 2.8
2019-Dec-04 20:50 220 4 gusting 8 2.8
2019-Dec-04 20:40 258 2 gusting 8 2.8
2019-Dec-04 20:30 230 4 gusting 13 2.8
2019-Dec-04 20:20 216 7 gusting 16 2.8
2019-Dec-04 20:10 223 7 gusting 15 2.8
2019-Dec-04 20:00 222 6 gusting 14 2.8
2019-Dec-04 19:50 225 5 gusting 12 2.8
2019-Dec-04 19:40 228 5 gusting 9 3.3
2019-Dec-04 19:30 237 4 gusting 12 3.3
2019-Dec-04 19:20 227 4 gusting 13 2.8
2019-Dec-04 19:10 242 3 gusting 9 2.2
2019-Dec-04 19:00 235 0 gusting 9 1.1
2019-Dec-04 18:50 228 1 gusting 7 -1.1
2019-Dec-04 18:40 015 -1.7
2019-Dec-04 18:30 329 -2.2
2019-Dec-04 18:20 -2.2
2019-Dec-04 18:10 -2.2
2019-Dec-04 18:00 -1.7
2019-Dec-04 17:50 -1.7
2019-Dec-04 17:40 -2.2
2019-Dec-04 17:30 -2.2
2019-Dec-04 17:20 -2.2
2019-Dec-04 17:10 -2.2
2019-Dec-04 17:00 -2.2
2019-Dec-04 16:50 -1.7
2019-Dec-04 16:40 -1.7
2019-Dec-04 16:30 -1.7
2019-Dec-04 16:20 -1.1
2019-Dec-04 16:10 -1.1
2019-Dec-04 16:00 -1.1
2019-Dec-04 15:50 302 0 gusting 4 -1.1
2019-Dec-04 15:40 -1.1
2019-Dec-04 15:30 333 -1.1
2019-Dec-04 15:20 262 -1.1
2019-Dec-04 15:10 100 -1.1
2019-Dec-04 15:00 -1.1
2019-Dec-04 14:50 -1.1
2019-Dec-04 14:40 -1.1
2019-Dec-04 14:30 -1.1
2019-Dec-04 14:20 -1.1
2019-Dec-04 14:10 -0.6
2019-Dec-04 14:00 -0.6
2019-Dec-04 13:50 -0.6
2019-Dec-04 13:40 -0.6
2019-Dec-04 13:30 -0.6
2019-Dec-04 13:20 -0.6
2019-Dec-04 13:10 -0.0
2019-Dec-04 13:00 -0.0
2019-Dec-04 12:50 226 -0.0
2019-Dec-04 12:40 -0.0
2019-Dec-04 12:30 -0.0
2019-Dec-04 12:20 -0.0
2019-Dec-04 12:10 -0.0
2019-Dec-04 12:00 225 -0.0
2019-Dec-04 11:50 -0.0
2019-Dec-04 11:40 -0.0
2019-Dec-04 11:30 -0.6
2019-Dec-04 11:20 -0.6
2019-Dec-04 11:10 -1.1
2019-Dec-04 11:00 -1.1
2019-Dec-04 10:50 -1.7
2019-Dec-04 10:40 -1.7
2019-Dec-04 10:30 -1.7
2019-Dec-04 10:20 -1.7
2019-Dec-04 10:10 -2.2
2019-Dec-04 10:00 -2.2
2019-Dec-04 09:50 -2.2
2019-Dec-04 09:40 -2.2
2019-Dec-04 09:30 -2.2
2019-Dec-04 09:20 -2.8
2019-Dec-04 09:10 -2.8
2019-Dec-04 09:00 -2.8
2019-Dec-04 08:50 -2.8
2019-Dec-04 08:40 -2.8
2019-Dec-04 08:30 -2.8
2019-Dec-04 08:20 -2.8
2019-Dec-04 08:10 -2.8
2019-Dec-04 08:00 -2.8
2019-Dec-04 07:50 -2.8
2019-Dec-04 07:40 -2.8
2019-Dec-04 07:30 -2.8
2019-Dec-04 07:20 -2.8
2019-Dec-04 07:10 -2.8
2019-Dec-04 07:00 -2.2
2019-Dec-04 06:50 -2.2
2019-Dec-04 06:40 -2.2
2019-Dec-04 06:30 -2.2
2019-Dec-04 06:20 -2.2
2019-Dec-04 06:10 -1.7
2019-Dec-04 06:00 -1.7
2019-Dec-04 05:50 -1.1
2019-Dec-04 05:40 -0.6
2019-Dec-04 05:30 -0.6
2019-Dec-04 05:20 323 -1.7
2019-Dec-04 05:10 325 -2.2
2019-Dec-04 05:00 -2.2
2019-Dec-04 04:50 -2.2
2019-Dec-04 04:40 -2.2
2019-Dec-04 04:30 -2.2
2019-Dec-04 04:20 -2.2
2019-Dec-04 04:10 -1.7
2019-Dec-04 04:00 -1.7
2019-Dec-04 03:50 -1.7
2019-Dec-04 03:40 247 -1.7
2019-Dec-04 03:30 -1.7
2019-Dec-04 03:20 -1.7
2019-Dec-04 03:10 -1.1
2019-Dec-04 03:00 -1.1
2019-Dec-04 02:50 -1.1
2019-Dec-04 02:40 -1.1
2019-Dec-04 02:30 -1.1
2019-Dec-04 02:20 -0.6
2019-Dec-04 02:10 283 -0.6
2019-Dec-04 02:00 -0.6
2019-Dec-04 01:50 -0.6
2019-Dec-04 01:40 -0.6
2019-Dec-04 01:30 -0.6
2019-Dec-04 01:20 -0.0
2019-Dec-04 01:10 -0.0
2019-Dec-04 01:00 0.6
2019-Dec-04 00:50 290 1.1
2019-Dec-04 00:40 279 1.1
2019-Dec-04 00:30 286 0 gusting 3 1.1
2019-Dec-04 00:20 1.1
2019-Dec-04 00:10 280 1.1
2019-Dec-04 00:00 0.6
2019-Dec-03 23:50 1.1
2019-Dec-03 23:40 1.1
2019-Dec-03 23:30 1.1
2019-Dec-03 23:20 1.1
2019-Dec-03 23:10 1.1
2019-Dec-03 23:00 1.1